Wind_Speed
6 5 4 5 4 4 4 4 4 4 5 5 6 6 5 5 5 6 6 6 6 6 6 6 6 6 5 5 5 5 5 5 5 5 6 6 6 6 6 6 6 5 5 5 6 7 7 8 8
6 6 5 5 5 5 5 5 5 5 5 6 6 6 6 6 6 6 7 7 7 7 7 7 7 7 7 6 6 5 5 6 6 7 7 7 6 7 7 7 7 7 7 7 7 8 8 8 9
6 6 6 6 7 6 6 6 6 5 6 6 7 7 6 6 6 7 7 8 8 8 8 8 9 9 9 8 7 7 7 7 7 8 8 8 8 8 8 8 7 7 8 8 9 9 9 9 9
5 6 6 7 7 7 7 7 7 7 6 7 7 7 7 7 7 8 8 9 9 9 9 9 10 10 11 10 9 8 8 8 8 9 9 8 9 9 9 8 8 8 9 8 9 9 9 9 10
5 5 6 7 7 7 8 8 8 8 7 7 8 8 8 8 8 8 8 8 9 9 10 10 10 11 11 10 10 10 10 10 9 10 10 10 10 10 10 10 9 9 8 9 9 9 10 9 10
5 5 6 7 7 7 7 8 8 8 8 8 8 8 9 9 9 9 9 9 9 9 10 11 11 11 11 11 11 11 11 11 10 10 10 10 10 10 10 10 10 9 9 9 10 10 10 11 11
6 6 7 7 7 7 7 7 8 8 8 8 8 9 9 8 8 9 9 10 10 10 10 11 12 12 12 11 11 11 11 11 11 11 11 11 11 11 10 10 10 10 10 10 10 11 11 12 12
6 7 6 6 6 6 6 7 7 8 8 9 9 9 8 8 8 9 9 9 9 10 10 11 12 12 12 12 12 12 12 12 12 12 12 12 12 11 11 11 11 11 11 12 12 12 12 12 13
7 7 6 6 6 6 7 7 7 7 7 8 8 9 9 10 10 10 10 10 10 11 11 11 12 12 12 12 12 13 13 13 13 12 12 12 12 12 12 12 12 12 12 13 14 14 13 13 14
7 7 7 7 7 7 7 7 7 7 7 8 8 8 9 10 10 11 11 10 10 10 11 11 12 12 12 12 13 13 14 13 13 13 13 13 13 13 13 13 13 13 13 13 14 14 14 14 15
7 7 7 8 8 8 8 8 8 8 8 8 8 8 9 10 10 11 11 10 10 10 10 11 11 11 11 12 12 13 14 14 14 14 13 14 14 14 14 13 13 14 13 13 14 14 14 14 15
7 7 8 8 8 9 9 9 9 9 9 9 9 9 9 9 10 10 10 10 11 11 11 11 11 11 12 12 13 13 13 14 15 15 15 14 15 15 15 15 14 14 14 14 15 15 15 15 15
7 7 7 8 9 9 9 9 9 10 9 9 10 10 10 10 11 11 11 11 11 11 12 12 12 12 12 13 13 14 14 14 15 16 16 15 15 16 16 16 15 15 15 15 16 16 16 16 16
6 7 7 8 8 8 8 9 9 9 9 9 10 10 10 10 11 11 11 11 11 11 11 12 13 13 13 13 14 14 14 14 14 14 15 15 16 16 15 16 16 16 16 16 16 16 16 16 16
7 7 7 8 8 9 9 8 9 9 9 9 9 10 10 10 11 11 11 11 11 11 11 12 12 13 13 13 13 14 14 15 15 15 15 15 15 15 14 15 15 15 15 15 16 16 16 16 16
7 8 8 8 8 8 8 8 9 9 9 9 9 10 10 10 10 10 11 11 11 11 11 12 12 12 13 14 14 15 15 16 15 15 15 15 15 15 15 15 14 15 15 15 16 16 15 15 15
7 8 8 8 8 8 8 9 9 9 9 9 9 9 10 10 10 11 11 12 11 11 12 12 12 12 14 14 14 15 15 15 15 15 15 15 15 15 16 15 15 15 16 16 16 16 15 15 15
7 7 7 7 8 8 8 8 8 9 9 9 9 9 9 10 10 10 11 12 11 12 12 12 12 12 13 14 14 14 15 15 15 15 16 16 16 17 16 16 16 16 16 16 16 15 15 15 15
7 7 7 7 7 8 8 8 8 8 8 8 9 8 9 10 10 10 11 11 11 12 13 13 13 13 13 14 15 15 15 15 15 15 16 16 16 16 16 16 16 16 16 16 16 17 17 16 16
6 7 7 7 7 7 7 7 8 8 8 8 8 8 8 10 10 10 11 12 12 12 13 14 14 14 15 15 16 16 16 16 17 17 17 16 16 16 16 17 17 16 16 16 17 17 17 17 17
6 6 6 6 6 7 7 7 7 7 8 8 8 8 9 10 10 11 12 12 13 13 13 14 15 15 16 16 16 17 17 17 18 18 18 18 18 17 17 17 17 18 17 17 17 17 18 17 17
6 6 6 6 6 6 6 7 7 8 7 7 8 8 9 10 11 12 12 13 13 13 14 15 16 16 17 17 17 18 18 19 18 18 18 18 18 18 18 18 18 19 19 19 19 18 19 19 19
6 6 6 6 6 6 7 7 7 9 9 9 9 9 9 11 11 11 12 13 14 14 15 16 16 17 18 18 18 19 19 19 18 18 18 19 19 18 18 18 19 19 19 19 20 20 20 19 19
6 7 7 7 7 7 7 8 8 9 10 10 11 10 10 11 12 12 12 13 14 14 15 16 17 17 17 18 18 19 19 19 19 19 19 19 19 19 19 19 19 20 20 20 21 21 20 20 20
7 7 8 8 8 8 8 9 9 9 10 11 12 12 12 13 13 13 14 15 15 16 16 17 17 18 19 19 19 20 20 20 20 20 20 19 20 20 20 20 20 21 21 21 21 21 20 20 21
8 8 8 9 10 10 10 10 10 10 11 11 12 13 14 15 15 15 15 16 17 18 18 19 19 19 19 20 20 20 20 20 20 20 20 20 20 21 21 21 21 21 22 22 22 22 22 22 21
9 9 9 10 11 12 12 11 11 11 12 12 13 14 15 16 16 17 17 18 19 19 19 20 20 19 20 20 21 21 21 21 21 21 21 21 21 21 21 21 21 22 22 22 22 22 22 22 21
9 9 10 10 11 11 12 12 12 12 13 14 14 15 16 16 17 18 18 19 19 20 21 22 21 21 21 21 21 22 22 22 22 21 21 21 22 22 21 22 22 22 22 22 22 21 22 23 22
10 10 11 11 11 12 13 13 13 14 14 14 15 15 16 16 17 18 19 20 20 21 22 22 22 23 23 23 23 23 23 22 22 22 22 22 22 22 22 22 22 22 22 22 22 22 22 22 23
11 12 12 13 13 13 14 14 15 16 16 15 16 17 17 18 18 19 20 21 22 22 23 23 23 24 24 24 24 24 24 23 23 23 24 24 23 23 24 23 23 23 23 23 23 23 23 23 23
Wind_Direction
212 212 212 210 221 228 231 228 223 210 208 208 214 219 221 220 216 216 214 214 219 223 223 225 225 223 226 231 232 232 231 231 233 233 233 238 239 240 242 247 246 249 253 251 255 256 252 251 253
213 217 217 218 226 235 236 233 224 222 220 221 224 224 224 225 225 223 222 221 223 228 230 232 233 236 238 240 242 241 243 241 239 237 239 244 244 245 250 254 256 258 265 266 263 262 261 261 260
213 216 220 225 232 235 236 236 232 235 231 235 235 231 234 234 234 232 229 229 232 236 237 237 237 238 240 243 244 249 255 252 246 244 248 249 251 250 254 258 264 267 272 274 267 264 265 268 266
216 220 227 232 236 239 239 239 238 238 237 238 241 238 239 240 241 239 236 237 239 240 241 240 240 240 242 245 247 252 254 252 251 251 254 253 253 253 255 259 264 269 270 274 269 267 270 270 270
220 222 227 233 239 243 243 242 242 243 241 242 242 239 242 243 244 243 241 241 243 242 244 242 242 244 243 244 249 254 255 253 253 255 259 261 259 257 256 261 264 268 272 269 266 267 271 272 272
240 236 233 237 243 248 244 243 242 245 240 243 243 242 243 246 247 248 246 245 246 248 247 243 245 246 244 247 251 255 256 257 260 260 257 260 262 261 263 264 264 267 271 273 269 269 268 269 271
239 237 237 242 248 251 248 244 244 247 246 244 243 243 245 247 248 250 249 248 250 252 250 248 248 249 249 252 255 255 257 260 263 262 258 261 265 267 269 269 267 269 269 272 274 273 271 270 271
249 250 249 249 252 251 252 249 249 252 251 248 245 244 245 247 252 252 251 250 252 253 252 250 249 250 252 254 256 258 259 262 261 260 260 262 267 265 265 266 267 270 270 272 274 276 277 276 276
251 252 253 253 255 252 250 251 252 256 255 254 249 247 250 253 254 254 255 255 255 254 252 251 250 253 256 256 256 259 259 259 258 259 261 263 264 263 262 264 267 270 272 274 275 274 276 279 281
252 255 258 256 253 252 251 252 254 255 254 253 253 254 257 259 258 257 257 258 258 256 256 255 253 254 258 259 259 260 258 259 259 262 263 264 264 262 262 264 267 270 271 273 276 276 275 279 280
257 259 258 256 254 252 253 257 257 258 257 257 257 259 263 262 260 259 256 256 255 255 256 259 258 259 260 260 261 260 258 258 261 264 264 266 266 265 264 265 268 269 271 273 276 277 277 279 278
260 260 259 257 258 256 255 256 256 259 259 259 259 260 261 261 261 260 259 258 256 255 257 258 260 261 262 260 260 260 258 259 260 262 263 266 267 266 266 267 268 270 272 274 276 274 276 278 278
262 263 262 261 260 260 258 260 262 263 261 262 263 261 260 260 260 261 261 259 257 256 257 256 257 261 262 262 260 260 260 262 263 263 264 265 266 267 268 268 267 270 273 274 275 273 275 276 277
265 266 264 261 261 261 261 262 262 260 262 264 265 264 261 261 259 258 259 258 256 257 258 258 257 260 262 263 264 263 262 263 265 264 263 264 265 265 267 268 268 271 273 275 277 274 274 275 278
267 265 264 263 264 266 264 261 258 260 262 264 264 263 261 259 256 255 256 256 258 260 261 260 260 259 261 262 264 266 267 267 267 266 265 265 266 265 267 268 269 272 272 275 277 275 273 275 278
267 265 264 263 263 266 266 263 260 261 261 264 266 263 260 259 258 257 256 257 259 262 265 267 266 266 265 267 269 269 270 269 268 267 266 265 266 267 268 269 271 273 275 275 277 274 274 275 278
262 261 264 265 265 267 268 267 262 260 261 263 267 265 261 261 261 259 259 259 261 262 264 267 270 269 269 271 270 269 269 269 269 270 269 268 267 268 269 269 273 274 276 276 278 274 275 276 276
259 261 264 265 268 268 270 274 266 264 263 264 268 267 265 263 263 261 261 261 263 264 265 267 271 273 274 273 272 274 271 269 270 271 270 270 268 268 269 271 274 275 277 277 277 276 274 275 275
261 263 265 266 268 269 273 276 269 264 262 266 272 270 266 263 263 261 263 267 267 267 268 269 272 275 277 274 273 276 275 272 271 273 274 272 271 269 269 271 274 276 278 279 278 278 275 276 276
261 261 263 265 269 272 273 274 272 267 265 269 273 272 268 263 263 263 268 270 270 271 271 273 272 274 277 276 276 275 275 275 273 275 277 275 273 273 272 272 273 274 277 278 279 279 277 277 276
259 259 262 266 271 275 277 271 268 265 268 265 266 269 269 266 265 268 269 273 272 272 272 274 276 275 277 278 277 277 277 277 276 276 278 277 275 275 274 273 272 274 275 275 276 278 277 276 275
258 258 262 268 276 278 276 271 265 265 266 265 267 269 273 273 271 271 271 273 274 272 272 273 276 277 278 280 279 280 279 279 277 276 275 276 274 273 272 272 272 274 274 274 276 277 276 276 276
260 260 266 274 278 278 275 274 263 263 264 269 270 271 275 280 278 276 277 275 274 273 274 276 278 279 280 281 282 281 279 277 277 276 275 274 273 272 269 269 271 273 273 274 275 275 275 276 278
268 267 273 279 277 275 274 272 268 261 264 268 273 275 279 281 284 282 281 280 278 277 276 279 281 283 284 284 284 283 281 279 277 276 276 275 274 273 271 270 271 272 273 273 274 274 274 277 278
275 279 281 284 279 272 272 271 274 268 267 269 271 274 280 281 282 282 281 278 277 278 278 280 281 283 284 283 283 284 282 281 279 276 275 275 274 273 273 272 273 273 273 272 272 272 273 276 277
278 277 280 279 277 276 277 276 278 275 273 271 272 275 279 280 282 283 280 279 278 277 278 280 283 283 283 283 283 284 282 280 279 277 275 275 275 275 274 274 274 273 273 274 272 270 272 275 276
274 273 278 281 284 284 282 280 277 281 282 281 279 280 279 280 283 282 282 282 281 279 280 282 283 283 282 282 282 283 282 280 278 276 274 274 275 275 276 276 275 273 272 274 274 272 273 273 274
274 277 279 283 286 288 288 283 282 282 284 284 284 283 283 283 284 281 282 284 284 283 281 283 283 284 282 282 281 281 282 280 277 275 275 274 275 275 276 276 277 275 272 272 273 273 273 272 272
275 278 279 280 282 286 289 289 284 283 286 286 286 287 286 286 285 283 284 286 286 285 284 284 283 283 284 282 281 282 281 280 276 274 275 275 275 275 277 276 276 276 275 273 273 273 273 274 274
278 277 279 281 283 284 287 287 287 285 287 287 286 288 288 288 287 286 285 286 286 285 285 284 284 284 284 284 283 283 281 280 277 274 275 275 276 277 278 277 277 275 274 273 274 275 275 275 274
Height
5867 5868 5869 5870 5871 5872 5871 5872 5872 5872 5873 5873 5873 5873 5874 5874 5875 5878 5876 5874 5874 5874 5874 5874 5875 5875 5875 5875 5875 5875 5875 5875 5875 5875 5875 5875 5875 5875 5875 5875 5875 5874 5874 5874 5874 5874 5873 5873 5873
5866 5867 5869 5870 5871 5871 5871 5871 5871 5871 5872 5872 5872 5872 5873 5873 5873 5873 5873 5873 5873 5873 5873 5873 5873 5874 5874 5874 5874 5874 5874 5874 5874 5874 5874 5874 5874 5874 5874 5873 5873 5873 5873 5872 5872 5872 5872 5872 5872
5865 5867 5869 5869 5870 5870 5871 5870 5870 5870 5870 5871 5871 5871 5871 5872 5872 5872 5872 5872 5872 5872 5872 5872 5872 5872 5872 5873 5873 5873 5873 5873 5873 5873 5873 5873 5872 5872 5872 5872 5872 5871 5871 5871 5870 5870 5870 5870 5870
5865 5867 5868 5869 5868 5869 5869 5869 5869 5869 5869 5869 5870 5870 5870 5870 5870 5870 5870 5870 5870 5870 5870 5870 5870 5871 5871 5871 5871 5872 5871 5871 5871 5871 5871 5871 5871 5870 5870 5870 5870 5870 5869 5869 5868 5868 5868 5868 5868
5865 5866 5867 5867 5867 5867 5867 5867 5868 5868 5868 5868 5868 5868 5868 5869 5869 5868 5868 5868 5868 5868 5868 5868 5869 5869 5869 5869 5870 5870 5869 5869 5870 5869 5869 5869 5869 5868 5868 5868 5868 5868 5867 5867 5867 5866 5866 5866 5865
5865 5865 5866 5866 5866 5866 5866 5866 5866 5866 5866 5866 5867 5867 5867 5867 5867 5867 5866 5866 5866 5866 5866 5866 5867 5867 5867 5867 5868 5868 5868 5868 5868 5867 5867 5867 5867 5866 5866 5866 5866 5866 5865 5865 5864 5864 5864 5864 5863
5864 5864 5864 5864 5865 5864 5864 5864 5864 5864 5864 5865 5865 5865 5865 5865 5865 5865 5864 5864 5864 5864 5864 5864 5865 5865 5865 5865 5866 5866 5866 5866 5866 5865 5865 5865 5865 5864 5864 5864 5864 5863 5863 5863 5862 5862 5861 5861 5860
5862 5863 5862 5863 5863 5863 5863 5863 5863 5863 5863 5863 5863 5863 5863 5863 5863 5863 5863 5863 5862 5862 5862 5863 5863 5863 5863 5863 5864 5864 5864 5863 5863 5863 5863 5863 5862 5862 5862 5862 5862 5861 5861 5860 5860 5859 5858 5858 5857
5861 5862 5861 5861 5861 5861 5861 5861 5861 5860 5861 5861 5861 5861 5861 5861 5861 5861 5861 5861 5860 5860 5860 5861 5861 5861 5861 5861 5861 5861 5861 5861 5861 5861 5860 5860 5860 5860 5860 5860 5859 5859 5858 5858 5857 5856 5856 5855 5854
5858 5859 5859 5859 5859 5859 5859 5859 5859 5859 5859 5859 5859 5859 5859 5859 5859 5859 5859 5859 5859 5859 5859 5859 5859 5858 5858 5858 5858 5859 5859 5859 5859 5858 5858 5858 5858 5857 5857 5857 5857 5856 5856 5855 5854 5854 5853 5852 5851
5856 5856 5857 5856 5856 5857 5857 5857 5857 5857 5857 5857 5857 5857 5857 5857 5856 5857 5857 5856 5856 5856 5856 5856 5856 5856 5856 5856 5856 5856 5856 5856 5856 5855 5855 5855 5855 5855 5854 5854 5854 5853 5853 5852 5851 5851 5850 5849 5848
5854 5854 5854 5854 5854 5854 5854 5854 5854 5854 5855 5855 5854 5854 5854 5854 5854 5854 5854 5854 5854 5854 5854 5854 5854 5854 5854 5853 5853 5853 5853 5853 5853 5852 5852 5852 5852 5852 5851 5851 5851 5850 5849 5849 5848 5847 5846 5845 5844
5851 5851 5851 5851 5851 5851 5851 5851 5852 5852 5852 5852 5852 5852 5852 5851 5852 5852 5852 5852 5852 5852 5852 5851 5851 5851 5851 5851 5851 5850 5850 5850 5849 5849 5849 5849 5849 5848 5848 5848 5847 5847 5846 5845 5845 5844 5843 5842 5840
5849 5849 5849 5848 5848 5848 5849 5849 5849 5849 5849 5849 5849 5849 5849 5849 5849 5849 5849 5849 5849 5849 5849 5849 5848 5848 5848 5848 5848 5847 5847 5847 5846 5846 5846 5845 5845 5845 5845 5844 5844 5843 5843 5842 5841 5840 5840 5838 5837
5846 5846 5846 5846 5846 5846 5846 5846 5846 5846 5847 5846 5846 5847 5846 5846 5846 5846 5846 5846 5846 5846 5846 5846 5845 5845 5845 5845 5845 5844 5844 5843 5843 5842 5842 5842 5841 5841 5841 5841 5840 5839 5839 5838 5838 5837 5836 5835 5834
5844 5844 5844 5844 5843 5843 5845 5844 5844 5844 5844 5844 5844 5844 5844 5843 5843 5843 5843 5843 5843 5843 5843 5843 5842 5842 5842 5842 5841 5841 5840 5840 5839 5839 5838 5838 5838 5838 5837 5837 5836 5836 5835 5834 5834 5833 5833 5831 5830
5841 5842 5842 5842 5841 5841 5841 5841 5841 5841 5841 5841 5841 5841 5841 5841 5841 5841 5841 5841 5841 5840 5840 5840 5840 5839 5839 5838 5838 5837 5837 5836 5836 5835 5835 5834 5834 5834 5834 5833 5833 5832 5831 5831 5830 5829 5829 5827 5826
5839 5839 5839 5839 5839 5839 5839 5839 5839 5839 5839 5839 5838 5838 5838 5838 5838 5838 5838 5838 5838 5838 5837 5837 5836 5836 5835 5835 5834 5834 5833 5832 5832 5831 5831 5830 5830 5830 5829 5829 5829 5828 5827 5827 5826 5825 5824 5824 5823
5836 5836 5837 5837 5836 5836 5836 5836 5836 5836 5836 5836 5836 5836 5836 5836 5836 5836 5835 5835 5835 5835 5834 5834 5833 5833 5832 5831 5831 5830 5829 5829 5828 5827 5827 5826 5826 5825 5825 5825 5824 5824 5823 5823 5822 5821 5820 5820 5819
5833 5834 5834 5834 5834 5834 5834 5834 5833 5834 5834 5834 5834 5833 5833 5833 5833 5833 5833 5832 5832 5832 5831 5830 5830 5829 5829 5828 5827 5826 5826 5825 5824 5823 5822 5822 5821 5821 5821 5820 5820 5819 5819 5818 5818 5817 5816 5815 5815
5831 5831 5832 5832 5832 5832 5832 5832 5831 5831 5831 5831 5831 5831 5831 5831 5831 5830 5830 5829 5829 5828 5828 5827 5826 5826 5825 5824 5823 5822 5821 5821 5820 5819 5818 5817 5817 5816 5816 5816 5815 5815 5815 5814 5813 5813 5812 5811 5810
5829 5829 5829 5829 5829 5829 5830 5830 5829 5829 5829 5829 5829 5829 5829 5828 5828 5827 5827 5826 5826 5825 5824 5824 5823 5822 5821 5820 5819 5818 5817 5816 5815 5814 5814 5813 5812 5812 5811 5811 5810 5810 5809 5809 5808 5808 5807 5806 5806
5826 5827 5827 5827 5827 5828 5827 5828 5828 5826 5826 5827 5826 5826 5826 5825 5825 5824 5824 5823 5822 5821 5821 5820 5819 5817 5816 5815 5814 5813 5812 5811 5810 5809 5809 5808 5807 5807 5807 5806 5806 5805 5804 5804 5803 5803 5802 5801 5801
5824 5825 5825 5825 5825 5825 5825 5825 5825 5824 5824 5824 5824 5823 5823 5823 5822 5821 5820 5819 5818 5817 5816 5816 5814 5813 5812 5811 5810 5809 5807 5806 5805 5805 5804 5803 5802 5802 5801 5801 5800 5800 5799 5798 5798 5797 5797 5796 5796
5822 5823 5823 5823 5823 5823 5823 5823 5823 5822 5822 5821 5821 5820 5820 5819 5819 5818 5817 5815 5814 5813 5812 5811 5810 5808 5807 5806 5805 5804 5802 5801 5800 5799 5798 5798 5797 5797 5796 5796 5795 5794 5793 5793 5792 5792 5791 5791 5790
5820 5821 5822 5822 5821 5821 5820 5819 5820 5819 5818 5818 5818 5817 5816 5816 5815 5814 5813 5811 5810 5809 5808 5807 5805 5804 5802 5801 5800 5799 5797 5796 5795 5794 5793 5792 5792 5791 5790 5790 5789 5788 5788 5787 5786 5786 5786 5785 5785
5817 5817 5818 5818 5818 5818 5817 5816 5816 5815 5815 5814 5814 5813 5813 5812 5811 5809 5808 5807 5805 5804 5803 5801 5800 5799 5797 5796 5795 5793 5792 5790 5789 5788 5787 5787 5786 5785 5785 5784 5783 5782 5782 5781 5781 5780 5780 5779 5779
5815 5815 5815 5815 5814 5814 5814 5813 5813 5811 5811 5811 5810 5809 5808 5808 5806 5805 5804 5802 5800 5799 5797 5796 5794 5793 5792 5790 5789 5787 5786 5785 5784 5782 5782 5781 5780 5780 5779 5778 5777 5777 5776 5776 5775 5774 5774 5774 5773
5812 5812 5811 5811 5811 5811 5810 5812 5809 5808 5807 5806 5806 5805 5804 5803 5802 5800 5799 5797 5795 5793 5792 5790 5789 5787 5786 5784 5783 5781 5780 5778 5777 5777 5776 5775 5774 5774 5773 5772 5771 5771 5770 5770 5769 5768 5768 5767 5767
5808 5808 5808 5808 5808 5807 5807 5809 5805 5804 5803 5802 5801 5800 5799 5798 5797 5795 5793 5792 5790 5788 5786 5784 5783 5781 5779 5778 5776 5774 5773 5772 5771 5770 5769 5769 5768 5767 5767 5766 5765 5765 5764 5763 5763 5762 5761 5761 5760